K5WNG Weather Reports


time (UTC)temp
C
wind
direction
speed
KPH
gust
KPH
rain 1hr
cm
rain 24hr
cm
rain mn
cm
humidity
%
barometer
mb
20260506051017 23 151 1.6 4.8 0.00 0.03 0.00 90 1008.3
20260506050517 23 133 1.6 4.8 0.00 0.03 0.00 90 1008.2
20260506045017 23 136 1.6 3.2 0.00 0.03 0.00 90 1008.3
20260506044521 23 122 1.6 6.4 0.00 0.03 0.00 90 1008.3
20260506044018 23 162 1.6 6.4 0.00 0.03 0.00 90 1008.2
20260506043518 23 167 1.6 6.4 0.00 0.03 0.00 90 1008.3
20260506043018 23 160 0.0 4.8 0.00 0.03 0.00 90 1008.3
20260506042518 24 157 1.6 3.2 0.00 0.03 0.00 89 1008.3
20260506042015 24 118 1.6 4.8 0.00 0.03 0.00 89 1008.1
20260506041515 24 158 1.6 4.8 0.00 0.03 0.00 89 1008.1
20260506041021 24 143 1.6 3.2 0.00 0.03 0.00 88 1008.1
20260506040519 24 132 1.6 4.8 0.00 0.03 0.00 88 1008.1
20260506040015 24 136 1.6 4.8 0.00 0.03 0.00 88 1008.0
20260506035515 24 193 1.6 4.8 0.00 0.03 0.00 88 1007.9
20260506035018 24 135 1.6 4.8 0.00 0.03 0.00 88 1007.7
20260506034515 24 151 1.6 3.2 0.00 0.03 0.00 87 1007.7
20260506034019 24 117 1.6 3.2 0.00 0.03 0.00 87 1007.7
20260506033518 24 139 1.6 3.2 0.00 0.03 0.00 87 1007.8
20260506033015 25 146 1.6 4.8 0.00 0.03 0.00 87 1007.7
20260506032516 25 147 1.6 6.4 0.00 0.03 0.00 86 1007.7
20260506032016 25 161 1.6 4.8 0.00 0.03 0.00 86 1007.6
20260506031516 25 158 1.6 6.4 0.00 0.03 0.00 86 1007.6
20260506031016 25 166 1.6 3.2 0.00 0.03 0.00 85 1007.6
20260506030519 25 158 1.6 3.2 0.00 0.03 0.00 85 1007.5
20260506030020 25 154 1.6 3.2 0.00 0.03 0.00 84 1007.4
20260506025516 25 151 1.6 6.4 0.00 0.03 0.00 84 1007.4
20260506025016 25 176 1.6 3.2 0.00 0.03 0.00 83 1007.3
20260506024517 25 184 0.0 3.2 0.00 0.03 0.00 83 1007.2
20260506024016 25 166 0.0 3.2 0.00 0.03 0.00 82 1007.1
20260506023516 25 170 0.0 1.6 0.00 0.03 0.00 82 1006.9
20260506023020 25 151 0.0 3.2 0.00 0.03 0.00 82 1006.8
20260506022516 25 156 0.0 1.6 0.00 0.03 0.00 81 1006.7
20260506022017 25 151 0.0 3.2 0.00 0.03 0.00 81 1006.6
20260506021517 25 119 0.0 1.6 0.00 0.03 0.00 81 1006.6
20260506021017 25 157 0.0 1.6 0.00 0.03 0.00 81 1006.5
20260506020517 25 111 0.0 4.8 0.00 0.03 0.00 81 1006.3
20260506020020 26 176 0.0 1.6 0.00 0.03 0.00 80 1006.2
20260506015517 26 153 0.0 3.2 0.00 0.03 0.00 80 1006.3
20260506015020 26 155 0.0 1.6 0.00 0.03 0.00 80 1006.3
20260506014517 26 133 0.0 1.6 0.00 0.03 0.00 80 1006.2
20260506014017 26 130 0.0 3.2 0.00 0.03 0.00 80 1006.1
20260506013520 26 170 0.0 1.6 0.00 0.03 0.00 80 1006.2
20260506013017 26 163 0.0 1.6 0.00 0.03 0.00 79 1006.2
20260506012517 26 132 0.0 3.2 0.00 0.03 0.00 79 1006.1
20260506012021 26 145 0.0 3.2 0.00 0.03 0.00 79 1006.1
20260506011521 26 150 0.0 1.6 0.00 0.03 0.00 78 1006.1
20260506011018 26 156 0.0 1.6 0.00 0.03 0.00 78 1006.2
20260506010521 26 99 0.0 1.6 0.00 0.03 0.00 78 1006.2
20260506010021 26 111 0.0 3.2 0.00 0.03 0.00 77 1006.2
20260506005518 27 170 0.0 1.6 0.00 0.03 0.00 77 1006.2
20260506005018 27 197 0.0 1.6 0.00 0.03 0.00 76 1006.2
20260506004518 27 136 0.0 3.2 0.00 0.03 0.00 76 1006.2
20260506004018 27 131 0.0 3.2 0.00 0.03 0.00 75 1006.2
20260506003518 27 178 0.0 1.6 0.00 0.03 0.00 75 1006.1
20260506003018 27 197 0.0 3.2 0.00 0.03 0.00 75 1006.2
20260506002518 27 150 0.0 1.6 0.00 0.03 0.00 74 1006.2
20260506002018 27 96 0.0 3.2 0.00 0.03 0.00 73 1006.2
20260506001516 27 136 0.0 1.6 0.00 0.03 0.00 73 1006.2
20260506001019 27 130 0.0 1.6 0.00 0.03 0.00 72 1006.1
20260506000519 27 187 0.0 1.6 0.00 0.03 0.00 72 1006.1
20260506000019 28 151 1.6 4.8 0.00 0.03 0.00 72 1006.0
20260505235516 28 227 0.0 3.2 0.00 0.03 0.03 72 1006.0
20260505235016 28 99 0.0 3.2 0.00 0.03 0.03 71 1005.9
20260505234516 28 148 0.0 3.2 0.00 0.03 0.03 71 1005.8
20260505234021 28 155 1.6 4.8 0.00 0.03 0.03 71 1005.8
20260505233516 28 108 0.0 4.8 0.00 0.03 0.03 71 1005.8
20260505233021 28 136 1.6 4.8 0.00 0.03 0.03 71 1005.7
20260505232516 28 96 1.6 4.8 0.00 0.03 0.03 71 1005.8
20260505232017 28 231 1.6 6.4 0.00 0.03 0.03 71 1005.7
20260505231517 28 126 1.6 3.2 0.00 0.03 0.03 70 1005.7
20260505231019 28 137 1.6 3.2 0.00 0.03 0.03 70 1005.7
20260505230517 28 119 0.0 3.2 0.00 0.03 0.03 70 1005.7
20260505230016 29 137 0.0 3.2 0.00 0.03 0.03 69 1005.7
20260505225516 29 123 0.0 3.2 0.00 0.03 0.03 69 1005.6
20260505225020 29 90 1.6 4.8 0.00 0.03 0.03 68 1005.6
20260505224520 29 93 0.0 3.2 0.00 0.03 0.03 69 1005.7
20260505224020 29 213 1.6 6.4 0.00 0.03 0.03 68 1005.5
20260505223521 29 116 1.6 4.8 0.00 0.03 0.03 68 1005.5
20260505223017 30 149 1.6 4.8 0.00 0.03 0.03 67 1005.6
20260505222518 30 128 1.6 4.8 0.00 0.03 0.03 66 1005.5
20260505222020 30 94 1.6 3.2 0.00 0.03 0.03 66 1005.5
20260505221520 30 108 1.6 4.8 0.00 0.03 0.03 66 1005.6
20260505221020 30 129 1.6 3.2 0.00 0.03 0.03 67 1005.7
20260505220520 30 153 1.6 3.2 0.00 0.03 0.03 65 1005.7
20260505220021 30 143 1.6 4.8 0.00 0.03 0.03 65 1005.7
20260505215518 30 126 1.6 4.8 0.00 0.03 0.03 64 1005.7
20260505215018 30 178 1.6 6.4 0.00 0.03 0.03 64 1005.9
20260505214521 30 248 1.6 4.8 0.00 0.03 0.03 65 1006.0
20260505214021 30 188 1.6 6.4 0.00 0.03 0.03 65 1006.1
20260505213521 30 105 1.6 4.8 0.00 0.03 0.03 65 1006.0
20260505213019 30 141 1.6 3.2 0.00 0.03 0.03 65 1006.1
20260505212518 30 246 1.6 6.4 0.00 0.03 0.03 65 1006.2
20260505212016 30 122 1.6 4.8 0.00 0.03 0.03 65 1006.3
20260505211515 30 134 1.6 4.8 0.00 0.03 0.03 65 1006.3
20260505211019 30 188 1.6 8.0 0.00 0.03 0.03 66 1006.2
20260505210515 30 141 1.6 4.8 0.00 0.03 0.03 66 1006.2
20260505210018 30 116 1.6 6.4 0.00 0.03 0.03 66 1006.4
20260505205516 30 122 1.6 4.8 0.00 0.03 0.03 66 1006.4
20260505205018 30 129 1.6 9.7 0.00 0.03 0.03 66 1006.4
20260505204516 30 139 1.6 9.7 0.00 0.03 0.03 66 1006.4
20260505204016 30 90 1.6 8.0 0.00 0.03 0.03 67 1006.4
20260505203519 30 164 1.6 6.4 0.00 0.03 0.03 67 1006.7
20260505203016 29 167 1.6 3.2 0.00 0.03 0.03 69 1006.8
20260505202516 29 132 1.6 6.4 0.00 0.03 0.03 68 1006.9
20260505202016 30 131 1.6 6.4 0.00 0.03 0.03 67 1006.9
20260505201516 29 114 1.6 4.8 0.00 0.03 0.03 68 1007.0
20260505201017 29 145 1.6 3.2 0.00 0.03 0.03 69 1007.1
20260505200519 30 125 1.6 3.2 0.00 0.03 0.03 68 1007.2
20260505200019 30 117 1.6 3.2 0.00 0.03 0.03 68 1007.2
20260505195516 30 151 1.6 4.8 0.00 0.03 0.03 68 1007.3
20260505195016 29 138 1.6 3.2 0.00 0.03 0.03 69 1007.4
20260505194516 29 150 1.6 3.2 0.00 0.03 0.03 69 1007.5
20260505194016 28 226 1.6 4.8 0.00 0.03 0.03 69 1007.6
20260505193520 28 138 1.6 3.2 0.00 0.03 0.03 70 1007.6
20260505193017 28 108 1.6 4.8 0.00 0.03 0.03 71 1007.6
20260505192517 28 235 1.6 3.2 0.00 0.03 0.03 72 1007.6
20260505192016 28 203 1.6 8.0 0.00 0.03 0.03 71 1007.6
20260505191519 28 229 1.6 9.7 0.00 0.03 0.03 72 1007.7
20260505191016 28 180 0.0 3.2 0.00 0.03 0.03 72 1007.6
20260505190519 27 141 1.6 6.4 0.00 0.03 0.03 72 1007.7
20260505190020 27 49 0.0 4.8 0.00 0.03 0.03 73 1007.7
20260505185519 27 243 1.6 9.7 0.00 0.03 0.03 72 1007.8
20260505185019 27 209 1.6 3.2 0.00 0.03 0.03 72 1007.8
20260505184516 27 198 1.6 4.8 0.00 0.03 0.03 73 1007.9
20260505184016 26 124 1.6 4.8 0.03 0.03 0.03 74 1008.0
20260505183519 26 292 0.0 4.8 0.03 0.03 0.03 75 1008.1
20260505183021 26 268 1.6 4.8 0.03 0.03 0.03 75 1008.2
20260505182519 26 233 1.6 8.0 0.03 0.03 0.03 76 1008.3
20260505182016 26 246 3.2 9.7 0.03 0.03 0.03 77 1008.3
20260505181519 26 244 1.6 8.0 0.03 0.03 0.03 77 1008.3
20260505181017 25 258 1.6 6.4 0.03 0.03 0.03 78 1008.3
20260505180515 25 255 1.6 8.0 0.03 0.03 0.03 78 1008.4
20260505180015 25 258 1.6 6.4 0.03 0.03 0.03 78 1008.5
20260505175517 25 261 3.2 6.4 0.03 0.03 0.03 78 1008.6
20260505175018 25 239 1.6 9.7 0.03 0.03 0.03 79 1008.6
20260505174518 25 248 3.2 12.9 0.03 0.03 0.03 78 1008.6
20260505174015 25 235 1.6 9.7 0.00 0.00 0.00 79 1008.7
20260505173515 25 241 1.6 8.0 0.00 0.00 0.00 79 1008.7
20260505173015 25 245 1.6 9.7 0.00 0.00 0.00 79 1008.7
20260505172516 25 248 3.2 9.7 0.00 0.00 0.00 79 1008.8
20260505172019 25 244 1.6 8.0 0.00 0.00 0.00 79 1008.8
20260505171519 25 165 1.6 6.4 0.00 0.00 0.00 81 1008.7
20260505171019 24 229 1.6 8.0 0.00 0.00 0.00 81 1008.8
20260505170519 24 218 1.6 3.2 0.00 0.00 0.00 81 1008.9
20260505170018 24 166 1.6 3.2 0.00 0.00 0.00 82 1008.8
20260505165522 24 249 3.2 8.0 0.00 0.00 0.00 82 1008.8
20260505165018 23 262 1.6 6.4 0.00 0.00 0.00 83 1008.8
20260505164518 23 223 1.6 4.8 0.00 0.00 0.00 83 1008.8
20260505164021 23 255 1.6 4.8 0.00 0.00 0.00 83 1008.8
20260505163521 23 189 1.6 3.2 0.00 0.00 0.00 84 1008.8
20260505163018 23 238 3.2 8.0 0.00 0.00 0.00 85 1008.7
20260505162518 23 256 3.2 6.4 0.00 0.00 0.00 85 1008.7
20260505162021 23 247 1.6 4.8 0.00 0.00 0.00 86 1008.8
20260505161521 22 194 1.6 3.2 0.00 0.00 0.00 87 1008.8
20260505161023 22 151 0.0 1.6 0.00 0.00 0.00 87 1008.9
20260505160521 22 221 1.6 4.8 0.00 0.00 0.00 88 1008.9
20260505153019 21 147 0.0 3.2 0.00 0.00 0.00 90 1009.0
20260505152519 21 241 1.6 4.8 0.00 0.00 0.00 90 1008.9
20260505152022 21 253 0.0 4.8 0.00 0.00 0.00 91 1008.9
20260505151519 21 234 1.6 8.0 0.00 0.00 0.00 91 1008.8
20260505151019 21 236 1.6 6.4 0.00 0.00 0.00 91 1008.8
20260505150519 21 229 1.6 8.0 0.00 0.00 0.00 91 1008.7
20260505140515 21 239 3.2 9.7 0.00 0.00 0.00 91 1008.3
20260505125021 21 237 1.6 6.4 0.00 0.00 0.00 91 1007.6
20260505124524 21 240 1.6 4.8 0.00 0.00 0.00 91 1007.5
20260505124024 21 223 1.6 4.8 0.00 0.00 0.00 91 1007.5
20260505123524 21 266 1.6 6.4 0.00 0.00 0.00 92 1007.4
20260505123024 21 209 1.6 4.8 0.00 0.00 0.00 92 1007.4
20260505122521 21 98 1.6 3.2 0.00 0.00 0.00 91 1007.3
20260505122021 20 220 1.6 6.4 0.00 0.00 0.00 91 1007.3
20260505121520 20 194 1.6 8.0 0.00 0.00 0.00 92 1007.2
20260505121025 20 186 1.6 4.8 0.00 0.00 0.00 92 1007.2
20260505120522 20 219 3.2 6.4 0.00 0.00 0.00 91 1007.1
20260505120022 20 204 1.6 3.2 0.00 0.00 0.00 91 1007.0
20260505115517 20 208 1.6 6.4 0.00 0.00 0.00 91 1006.9
20260505115023 20 236 1.6 8.0 0.00 0.00 0.00 91 1006.9
20260505114526 20 208 1.6 3.2 0.00 0.00 0.00 91 1007.0
20260505114022 20 224 1.6 6.4 0.00 0.00 0.00 91 1007.1
20260505113517 20 237 1.6 8.0 0.00 0.00 0.00 91 1007.0
20260505113018 20 216 1.6 6.4 0.00 0.00 0.00 91 1007.1
20260505112518 20 204 1.6 8.0 0.00 0.00 0.00 91 1007.0
20260505112021 20 225 1.6 11.3 0.00 0.00 0.00 91 1006.9
20260505111515 20 211 1.6 8.0 0.00 0.00 0.00 91 1006.9
20260505111021 20 180 1.6 6.4 0.00 0.00 0.00 91 1007.1
20260505110515 20 215 1.6 4.8 0.00 0.00 0.00 91 1007.2
20260505102016 21 214 3.2 8.0 0.00 0.00 0.00 90 1007.2
20260505101516 21 208 1.6 6.4 0.00 0.00 0.00 90 1007.3
20260505101021 21 215 1.6 9.7 0.00 0.00 0.00 89 1007.3
20260505100519 21 237 1.6 9.7 0.00 0.00 0.00 89 1007.2
20260505100016 21 222 1.6 8.0 0.00 0.00 0.00 89 1007.3
20260505095516 21 212 1.6 4.8 0.00 0.00 0.00 89 1007.2
20260505095016 21 204 1.6 6.4 0.00 0.00 0.00 89 1007.0
20260505094516 21 193 1.6 6.4 0.00 0.00 0.00 89 1007.1
20260505094016 21 224 1.6 8.0 0.00 0.00 0.00 89 1007.3
20260505093519 21 215 1.6 8.0 0.00 0.00 0.00 89 1007.4
20260505093020 21 233 1.6 6.4 0.00 0.00 0.00 89 1007.4
20260505092516 21 191 1.6 4.8 0.00 0.00 0.00 89 1007.4
20260505092017 21 225 1.6 11.3 0.00 0.00 0.00 89 1007.2
20260505091520 21 218 1.6 4.8 0.00 0.00 0.00 89 1007.2
20260505091020 21 214 1.6 9.7 0.00 0.00 0.00 89 1007.4
20260505090522 21 211 1.6 6.4 0.00 0.00 0.00 89 1007.5
20260505090017 21 234 1.6 11.3 0.00 0.00 0.00 89 1007.6
20260505085520 21 180 1.6 6.4 0.00 0.00 0.00 89 1007.5
20260505085017 21 206 1.6 9.7 0.00 0.00 0.00 89 1007.5
20260505084518 21 194 1.6 4.8 0.00 0.00 0.00 89 1007.5
20260505084017 21 218 1.6 8.0 0.00 0.00 0.00 89 1007.6
20260505083522 21 206 1.6 6.4 0.00 0.00 0.00 89 1007.6
20260505083018 21 178 1.6 4.8 0.00 0.00 0.00 89 1007.6
20260505082521 21 232 3.2 12.9 0.00 0.00 0.00 89 1007.8
20260505082021 21 224 1.6 6.4 0.00 0.00 0.00 89 1007.8
20260505081518 21 208 1.6 6.4 0.00 0.00 0.00 89 1007.8
20260505081021 21 224 1.6 6.4 0.00 0.00 0.00 89 1007.8
20260505080521 21 178 1.6 6.4 0.00 0.00 0.00 89 1007.9
20260505080018 21 166 1.6 4.8 0.00 0.00 0.00 88 1008.0
20260505075521 21 199 1.6 8.0 0.00 0.00 0.00 88 1008.0
20260505075015 21 202 1.6 8.0 0.00 0.00 0.00 88 1008.1
20260505074519 21 204 1.6 4.8 0.00 0.00 0.00 88 1008.3
20260505074018 21 209 1.6 8.0 0.00 0.00 0.00 88 1008.3
20260505073515 21 179 1.6 6.4 0.00 0.00 0.00 88 1008.3
20260505073018 21 205 1.6 6.4 0.00 0.00 0.00 88 1008.3
20260505072515 21 180 1.6 4.8 0.00 0.00 0.00 88 1008.4
20260505072016 21 223 1.6 8.0 0.00 0.00 0.00 88 1008.5
20260505071520 21 177 1.6 4.8 0.00 0.00 0.00 88 1008.6
20260505071015 21 234 3.2 11.3 0.00 0.00 0.00 88 1008.6
20260505070518 21 214 1.6 6.4 0.00 0.00 0.00 88 1008.6
20260505070016 21 192 1.6 8.0 0.00 0.00 0.00 88 1008.7
20260505065516 21 222 3.2 11.3 0.00 0.00 0.00 87 1008.7
20260505065019 21 200 1.6 6.4 0.00 0.00 0.00 87 1008.7
20260505064516 21 219 3.2 12.9 0.00 0.00 0.00 87 1008.8
20260505064019 21 232 3.2 9.7 0.00 0.00 0.00 87 1008.8
20260505063516 21 217 1.6 8.0 0.00 0.00 0.00 87 1008.8
20260505063021 21 209 1.6 4.8 0.00 0.00 0.00 87 1009.0
20260505062516 21 217 1.6 6.4 0.00 0.00 0.00 87 1009.1
20260505062017 21 220 3.2 8.0 0.00 0.00 0.00 87 1009.1
20260505061517 21 209 3.2 11.3 0.00 0.00 0.00 87 1009.1
20260505061020 21 209 1.6 8.0 0.00 0.00 0.00 86 1009.2
20260505060517 21 178 1.6 6.4 0.00 0.00 0.00 86 1009.1